[[{"header":{"parameterUnit":"m.s-1","parameterCategory":1,"la1":30.2991,"la2":30.254,"lo1":-89.0895,"lo2":-89.0444,"dy":0.0017,"dx":0.0017,"nx":28,"ny":28,"refTime":"2023-10-08T09:00:00:Z","depth":0,"parameterNumber":2,"parameterNumberName":"U-component_of_WINDS"},"data":[0,0,0,0,0,0,0,0,0,0,0,0,0,0,0,0,0,0,0,0,0,0,0,0,0,0,0,0,0,0,0,0,0,0,0,0,0,0,0,0,0,0,0,0,0,0,0,0,0,0,0,0,0,0,0,0,0,0,-1.8569,-1.8569,0,-1.8582,-1.8582,-1.8582,-1.8466,-1.8462,-1.8459,-1.8456,-1.8474,-1.8477,-1.848,0,0,0,0,0,0,0,0,0,0,0,0,0,-1.8447,-1.845,-1.8569,-1.8569,-1.8569,-1.8582,-1.8582,-1.8582,-1.8466,-1.8462,-1.8458,-1.8455,-1.8472,-1.8477,-1.8481,0,0,0,0,0,0,0,0,0,0,0,0,0,-1.8484,-1.8451,-1.8569,-1.8513,-1.8508,-1.8582,-1.8582,-1.8582,-1.8467,-1.8462,-1.8457,-1.8453,-1.8471,-1.8476,-1.8481,-1.8611,0,0,-1.8497,-1.8499,0,0,0,0,0,0,0,0,-1.8482,-1.8489,-1.8521,-1.8517,-1.8512,-1.8517,-1.8545,-1.8592,-1.8468,-1.8483,-1.8456,-1.845,-1.8492,-1.8495,-1.8509,-1.8611,-1.8612,-1.8498,-1.8501,-1.8503,-1.8505,0,0,0,0,0,0,0,-1.848,-1.8488,-1.8574,-1.8522,-1.8516,-1.8488,-1.8488,-1.8553,-1.8515,-1.8481,-1.8473,-1.8476,-1.8489,-1.8504,-1.8508,-1.8612,-1.8498,-1.8502,-1.8505,-1.8507,-1.882,-1.8825,0,0,0,0,0,0,-1.8484,-1.8486,-1.8574,-1.8574,-1.8484,-1.8494,-1.8494,-1.852,-1.8514,-1.8508,-1.848,-1.847,-1.8497,-1.8502,-1.8508,-1.8659,-1.8503,-1.8508,-1.8511,-1.8815,-1.8821,-1.8827,0,0,0,0,0,0,-1.8482,-1.8493,-1.8573,-1.8528,-1.8536,-1.8501,-1.8532,-1.8523,-1.8538,-1.8512,-1.8505,-1.8502,-1.8494,-1.8501,-1.8585,-1.8658,-1.851,-1.8515,-1.8809,-1.8817,-1.8824,-1.8961,0,0,0,0,0,0,-1.8479,-1.8493,-1.8542,-1.853,-1.8539,-1.865,-1.8536,-1.8527,-1.8547,-1.8534,-1.8532,-1.8527,-1.849,-1.8578,-1.8591,-1.8662,-1.8519,-1.8802,-1.8813,-1.8822,-1.895,-1.8973,-1.8992,0,0,0,0,0,-1.8475,-1.8581,-1.8545,-1.8556,-1.8599,-1.8654,-1.866,-1.8615,-1.8553,-1.8602,-1.8585,-1.8527,-1.8647,-1.8588,-1.8601,-1.8675,-1.8798,-1.881,-1.8821,-1.8941,-1.8968,-1.8991,0,0,0,0,0,0,-1.8605,-1.8579,-1.8538,-1.8643,-1.8652,-1.8635,-1.8695,-1.8645,-1.8673,-1.866,-1.8604,-1.8605,-1.8698,-1.8695,-1.8629,-1.8799,-1.8712,-1.8727,-1.8798,-1.8824,-1.8845,-1.8845,-1.8523,0,0,0,0,0,-1.8645,-1.8691,-1.8666,-1.8762,-1.8768,-1.8731,-1.8753,-1.8717,-1.8725,-1.8728,-1.8718,-1.8728,-1.8767,-1.8795,-1.8831,-1.8948,-1.8946,-1.9005,-1.9026,-1.9043,-1.9058,-1.9118,-1.9145,-1.8865,-1.8865,-1.8865,0,0,-1.873,-1.8721,-1.8755,-1.8787,-1.879,-1.884,-1.8735,-1.8792,-1.8829,-1.8737,-1.8816,-1.8808,-1.8816,-1.8917,-1.8961,-1.8917,-1.9134,-1.9058,-1.9072,-1.9077,-1.9133,-1.916,-1.9183,-1.8873,-1.8872,-1.887,0,0,-1.891,-1.8908,-1.8986,-1.899,-1.8994,-1.8968,-1.8987,-1.8977,-1.8968,-1.9045,-1.8977,-1.902,-1.909,-1.9098,-1.9111,-1.9291,-1.9238,-1.9304,-1.9414,-1.9474,-1.9496,-1.9515,-1.958,-1.9603,-1.9317,-1.9318,-1.9318,0,-1.9016,-1.9087,-1.9034,-1.9095,-1.9112,-1.9028,-1.9107,-1.9114,-1.913,-1.9143,-1.9093,-1.9178,-1.9177,-1.9278,-1.9322,-1.9335,-1.9355,-1.9305,-1.9497,-1.9516,-1.9533,-1.9594,-1.9618,-1.9326,-1.9325,-1.9324,-1.9323,0,-1.9217,-1.9267,-1.933,-1.9345,-1.9368,-1.9439,-1.9396,-1.9426,-1.9388,-1.9367,-1.9447,-1.9442,-1.9475,-1.9495,-1.946,-1.9592,-1.9564,-1.9506,-1.9418,-1.9568,-1.9625,-1.9647,-1.9337,-1.9334,-1.9332,-1.933,0,0,-1.9482,-1.9464,-1.9488,-1.9493,-1.949,-1.9528,-1.9594,-1.9624,-1.9651,-1.9664,-1.9718,-1.9778,-1.9723,-1.9738,-1.9702,-1.9754,-1.9897,-1.969,-1.9689,-1.9729,-2.0042,-2.0087,-2.0114,-1.9861,-1.9865,-1.9868,-2.0042,0,-1.9658,-1.9769,-1.9721,-1.9837,-1.9882,-1.9802,-1.9859,-1.9864,-1.9846,-1.9882,-1.9862,-1.9906,-1.9831,-1.9839,-1.9887,-1.987,-1.9959,-1.9856,-1.9912,-1.9915,-1.9914,-2.0144,-2.0191,-2.0355,-2.0063,-2.0067,-2.0069,0,-1.9879,-1.9898,-2.0018,-2.0004,-2.0022,-2.0074,-2.0096,-2.0132,-2.0135,-2.0118,-2.0134,-2.0085,-2.0148,-2.0059,-2.0146,-2.0077,-2.0097,-2.0091,-2.0096,-2.0101,-2.0003,-2.0156,-2.0406,-2.0432,-2.0104,-2.0101,-2.0098,0,-2.0061,-2.0117,-2.0196,-2.0203,-2.0189,-2.0227,-2.0223,-2.0221,-2.0241,-2.0261,-2.0273,-2.0301,-2.0317,-2.0339,-2.0299,-2.0237,-2.0393,-2.0299,-2.0381,-2.0382,-2.0419,-2.0418,-2.0678,-2.043,-2.043,-2.0429,-2.0429,0,-2.0263,-2.034,-2.0277,-2.0326,-2.0409,-2.0353,-2.0437,-2.0424,-2.0423,-2.0468,-2.04,-2.0444,-2.0387,-2.0426,-2.0395,-2.0472,-2.0479,-2.0468,-2.0459,-2.0475,-2.0477,-2.0488,-2.0477,-2.0436,-2.0434,-2.0433,-2.0432,0,-2.0482,-2.0443,-2.0523,-2.0502,-2.0498,-2.0561,-2.0543,-2.0587,-2.0563,-2.0621,-2.0631,-2.0594,-2.0635,-2.0596,-2.0637,-2.0616,-2.0719,-2.0693,-2.0718,-2.0711,-2.0795,-2.0788,-2.1073,-2.1108,-2.0837,-2.0839,-2.0842,0,-2.0615,-2.0671,-2.0655,-2.0679,-2.0679,-2.0719,-2.0738,-2.0685,-2.0708,-2.0714,-2.0758,-2.0793,-2.0818,-2.0889,-2.0866,-2.0896,-2.0871,-2.0969,-2.0876,-2.0889,-2.0873,-2.0871,-2.0876,-2.0989,-2.0992,-2.0994,-2.0996,0,-2.0854,-2.0831,-2.0861,-2.0883,-2.0908,-2.0924,-2.0934,-2.0958,-2.0902,-2.0932,-2.0972,-2.0992,-2.1031,-2.1067,-2.109,-2.1086,-2.1033,-2.1025,-2.1046,-2.1064,-2.1076,-2.1071,-2.0771,-2.102,-2.1017,-2.1016,-2.1015,-2.1014,-2.1034,-2.108,-2.1075,-2.111,-2.1112,-2.1123,-2.1162,-2.1142,-2.1174,-2.1201,-2.1167,-2.1217,-2.1216,-2.124,-2.1243,-2.1282,-2.1241,-2.1271,-2.1279,-2.1287,-2.13,-2.1068,-2.1286,-2.1285,-2.1284,-2.1284,-2.1283,0,-2.1271,-2.1263,-2.1295,-2.131,-2.1338,-2.1282,-2.129,-2.1317,-2.1361,-2.1364,-2.139,-2.1436,-2.1469,-2.1448,-2.1477,-2.1512,-2.1488,-2.1522,-2.152,-2.152,-2.1334,-2.1314,-2.154,-2.154,-2.154,-2.154,-2.154,-2.154,-2.1397,-2.1472,-2.1448,-2.1522,-2.1513,-2.156,-2.1569,-2.1579,-2.1581,-2.1635,-2.1662,-2.1646,-2.164,-2.1667,-2.1696,-2.1688,-2.1703,-2.1745,-2.173,-2.1558,-2.1533,-2.1509,-2.1489,-2.1749,-2.1749,-2.1912,-2.1913,-2.1914]},{"header":{"parameterUnit":"m.s-1","parameterCategory":1,"la1":30.2991,"la2":30.254,"lo1":-89.0895,"lo2":-89.0444,"dy":0.0017,"dx":0.0017,"nx":28,"ny":28,"refTime":"2023-10-08T09:00:00:Z","depth":0,"parameterNumber":3,"parameterNumberName":"V-component_of_WINDS"},"data":[0,0,0,0,0,0,0,0,0,0,0,0,0,0,0,0,0,0,0,0,0,0,0,0,0,0,0,0,0,0,0,0,0,0,0,0,0,0,0,0,0,0,0,0,0,0,0,0,0,0,0,0,0,0,0,0,0,0,-6.7002,-6.7004,0,-6.7123,-6.7125,-6.7126,-6.699,-6.6985,-6.6979,-6.6975,-6.7094,-6.7102,-6.711,0,0,0,0,0,0,0,0,0,0,0,0,0,-6.6647,-6.6655,-6.7002,-6.7004,-6.7005,-6.7123,-6.7125,-6.7126,-6.6991,-6.6984,-6.6978,-6.6972,-6.7091,-6.7101,-6.711,0,0,0,0,0,0,0,0,0,0,0,0,0,-6.6788,-6.6657,-6.7002,-6.6952,-6.6948,-6.7123,-6.7125,-6.7127,-6.6992,-6.6984,-6.6976,-6.6969,-6.7088,-6.71,-6.7112,-6.734,0,0,-6.7148,-6.7153,0,0,0,0,0,0,0,0,-6.6781,-6.6802,-6.6958,-6.6955,-6.6952,-6.7034,-6.7043,-6.7198,-6.6994,-6.6975,-6.6974,-6.6965,-6.708,-6.7092,-6.7131,-6.7345,-6.7351,-6.7149,-6.7156,-6.7162,-6.7165,0,0,0,0,0,0,0,-6.6771,-6.6796,-6.705,-6.696,-6.6957,-6.6921,-6.6933,-6.7072,-6.7069,-6.6976,-6.6967,-6.6983,-6.7077,-6.712,-6.7133,-6.7352,-6.7149,-6.716,-6.7167,-6.7172,-6.7758,-6.7766,0,0,0,0,0,0,-6.6768,-6.6788,-6.7046,-6.7053,-6.6846,-6.6934,-6.6947,-6.7015,-6.7067,-6.7068,-6.699,-6.6976,-6.7104,-6.7119,-6.7137,-6.7407,-6.7162,-6.7173,-6.718,-6.7749,-6.7759,-6.7769,0,0,0,0,0,0,-6.6761,-6.6792,-6.7041,-6.6918,-6.6947,-6.6948,-6.7026,-6.7022,-6.7065,-6.7077,-6.7076,-6.7035,-6.7098,-6.712,-6.729,-6.7409,-6.7178,-6.7189,-6.7739,-6.7752,-6.7764,-6.7949,0,0,0,0,0,0,-6.6751,-6.679,-6.6878,-6.6922,-6.6955,-6.7195,-6.7033,-6.703,-6.7087,-6.707,-6.712,-6.712,-6.7094,-6.7273,-6.7302,-6.7421,-6.7198,-6.7729,-6.7745,-6.776,-6.7932,-6.7966,-6.7995,0,0,0,0,0,-6.6739,-6.6925,-6.6884,-6.6915,-6.7065,-6.7202,-6.7221,-6.7188,-6.7097,-6.7184,-6.7192,-6.7119,-6.7391,-6.7292,-6.7323,-6.7448,-6.7721,-6.7741,-6.7759,-6.7918,-6.7959,-6.7994,0,0,0,0,0,0,-6.6894,-6.6929,-6.6884,-6.709,-6.7144,-6.7179,-6.7288,-6.7233,-6.7313,-6.7294,-6.7248,-6.7261,-6.7442,-6.7461,-6.735,-6.767,-6.7541,-6.7567,-6.7651,-6.7691,-6.7722,-6.7713,-6.7208,0,0,0,0,0,-6.6953,-6.7063,-6.7087,-6.7266,-6.7295,-6.7288,-6.7346,-6.7316,-6.737,-6.7392,-6.7412,-6.7465,-6.7562,-6.7627,-6.7718,-6.7934,-6.7942,-6.8035,-6.8066,-6.8092,-6.8115,-6.8229,-6.8271,-6.7831,-6.783,-6.783,0,0,-6.7074,-6.7107,-6.7179,-6.7298,-6.7336,-6.7449,-6.7308,-6.7434,-6.7516,-6.741,-6.7572,-6.7589,-6.7645,-6.784,-6.7926,-6.7861,-6.8238,-6.8116,-6.8137,-6.8146,-6.8253,-6.8295,-6.8332,-6.7843,-6.7841,-6.7839,0,0,-6.7353,-6.739,-6.7542,-6.7584,-6.7644,-6.7638,-6.7675,-6.7718,-6.7725,-6.7888,-6.781,-6.7907,-6.8076,-6.8119,-6.8163,-6.8458,-6.8393,-6.8489,-6.8653,-6.8766,-6.88,-6.8831,-6.8935,-6.8973,-6.8512,-6.8512,-6.8512,0,-6.7495,-6.7664,-6.7627,-6.7759,-6.7813,-6.7723,-6.7876,-6.7918,-6.8005,-6.8043,-6.797,-6.818,-6.8212,-6.8414,-6.8486,-6.8525,-6.8564,-6.8483,-6.8799,-6.8829,-6.8857,-6.8955,-6.8995,-6.8523,-6.8522,-6.8521,-6.852,0,-6.7836,-6.7955,-6.807,-6.8158,-6.8225,-6.8367,-6.8349,-6.8421,-6.8385,-6.8386,-6.8552,-6.8587,-6.8682,-6.8728,-6.8694,-6.8926,-6.8884,-6.8806,-6.8675,-6.891,-6.9002,-6.904,-6.8539,-6.8535,-6.8532,-6.8529,0,0,-6.8216,-6.8281,-6.8325,-6.8363,-6.8423,-6.8512,-6.8649,-6.8744,-6.8806,-6.8869,-6.8981,-6.9126,-6.9054,-6.9105,-6.9074,-6.9173,-6.9403,-6.9082,-6.9083,-6.914,-6.9659,-6.9717,-6.9761,-6.936,-6.9367,-6.9373,-6.9654,0,-6.8495,-6.8735,-6.8705,-6.8933,-6.9041,-6.8957,-6.9076,-6.9125,-6.9129,-6.922,-6.9223,-6.9327,-6.9225,-6.9254,-6.9348,-6.9355,-6.9506,-6.9334,-6.9463,-6.9468,-6.9451,-6.981,-6.9871,-7.0135,-6.9689,-6.9696,-6.97,0,-6.8853,-6.893,-6.917,-6.9212,-6.9256,-6.9364,-6.9448,-6.9537,-6.9589,-6.9585,-6.9642,-6.9594,-6.9729,-6.9596,-6.9781,-6.9665,-6.9715,-6.9727,-6.9736,-6.9746,-6.9598,-6.9829,-7.0218,-7.0258,-6.9756,-6.9752,-6.9748,0,-6.9105,-6.9268,-6.9433,-6.9468,-6.9522,-6.96,-6.9625,-6.9671,-6.9729,-6.9802,-6.9839,-6.9927,-6.9974,-7.0042,-7.0018,-6.9924,-7.0208,-7.0073,-7.0206,-7.0207,-7.0269,-7.0266,-7.0672,-7.0304,-7.0303,-7.0303,-7.0302,0,-6.942,-6.957,-6.9547,-6.9648,-6.9812,-6.9776,-6.9939,-6.9954,-6.9995,-7.0096,-7.0028,-7.0124,-7.0087,-7.018,-7.0162,-7.0317,-7.0339,-7.0338,-7.0332,-7.0345,-7.0345,-7.0376,-7.0357,-7.0313,-7.0311,-7.0309,-7.0307,0,-6.9729,-6.972,-6.9893,-6.9931,-6.9943,-7.0063,-7.0094,-7.0188,-7.0186,-7.0315,-7.0343,-7.0341,-7.0447,-7.043,-7.0547,-7.0535,-7.0728,-7.0699,-7.0711,-7.0704,-7.0839,-7.0826,-7.1279,-7.1336,-7.0932,-7.0936,-7.0939,0,-6.993,-7.0044,-7.0093,-7.0157,-7.0189,-7.0292,-7.0352,-7.032,-7.0384,-7.0453,-7.0538,-7.0638,-7.0717,-7.089,-7.0897,-7.0986,-7.0959,-7.1111,-7.0971,-7.098,-7.096,-7.0953,-7.0964,-7.1139,-7.1143,-7.1147,-7.115,0,-7.0288,-7.0278,-7.0367,-7.0456,-7.053,-7.0597,-7.0658,-7.0713,-7.0686,-7.0762,-7.0871,-7.0932,-7.1052,-7.1152,-7.1235,-7.1259,-7.1201,-7.1194,-7.123,-7.1243,-7.1245,-7.1245,-7.0786,-7.1184,-7.118,-7.1178,-7.1176,-7.1175,-7.0548,-7.0645,-7.0695,-7.0797,-7.0839,-7.0898,-7.0988,-7.0998,-7.1089,-7.1185,-7.116,-7.1283,-7.1331,-7.1437,-7.147,-7.1564,-7.1507,-7.1559,-7.1572,-7.1585,-7.1601,-7.1231,-7.1579,-7.1578,-7.1577,-7.1576,-7.1576,0,-7.0902,-7.093,-7.1024,-7.1112,-7.1192,-7.1131,-7.1195,-7.1265,-7.1374,-7.1425,-7.1504,-7.1628,-7.1724,-7.174,-7.1831,-7.1903,-7.1878,-7.1928,-7.1922,-7.1928,-7.1647,-7.1607,-7.1947,-7.1946,-7.1946,-7.1946,-7.1946,-7.1946,-7.1095,-7.1255,-7.1251,-7.143,-7.1456,-7.1577,-7.1619,-7.1672,-7.1712,-7.1854,-7.1934,-7.1944,-7.1981,-7.2074,-7.2159,-7.216,-7.2197,-7.2257,-7.2249,-7.1985,-7.1948,-7.1913,-7.1875,-7.2265,-7.2266,-7.2522,-7.2524,-7.2526]}]]